Regional Weather Roundup
Issued by NWS

Home | Current Version | Previous Version | Text Only | Print | Product List | Glossary On
Versions: 1 2 3 4 5 6 7 8 9 10 11 12 13 14 15 16 17 18 19 20 21 22 23 24 25 26 27 28 29 30 31 32 33 34 35 36 37 38 39 40 41 42 43 44 45 46 47 48 49 50
204
ASUS44 KLIX 162305
RWRLA
LOUISIANA WEATHER ROUNDUP
NATIONAL WEATHER SERVICE NEW ORLEANS LA
600 PM CDT TUE SEP 16 2014

NOTE: "FAIR" INDICATES FEW OR NO CLOUDS BELOW 12,000 FEET WITH NO
      SIGNIFICANT WEATHER AND/OR OBSTRUCTIONS TO VISIBILITY.
      SKY/WX - SKY CONDITION AND SIGNIFICANT WEATHER.
      TMP - AIR TEMPERATURE.    DP   - DEWPOINT TEMPERATURE.
      RH  - RELATIVE HUMIDITY.  PRES - PRESSURE.
      HX  - HEAT INDEX.         WCI  - WIND CHILL INDEX.

*  THESE STATIONS ARE NOT NWS OR FAA STATIONS AND ARE NOT UNDER
   NWS QUALITY CONTROL.

LAZ040-048-061>063-065-066-069-170000-
SOUTHEAST LOUISIANA

CITY           SKY/WX    TMP DP  RH WIND       PRES   REMARKS
N.O. AUDUBON   NOT AVBL
N.O. INTL ARPT CLOUDY    76  73  91 SW5       30.01R
N.O. LAKEFRONT CLOUDY    80  76  87 CALM      30.01R
N.O. DOWNTOWN* FAIR      79  73  83 CALM      30.01R
SLIDELL        CLOUDY    76  73  91 W3        30.01R
BATON ROUGE    CLOUDY    76  71  85 S10       30.01R
BOOTHVILLE     CLOUDY    81  76  84 W12       30.00R
BELLE CHASSE   LGT RAIN  78  74  87 SW5       30.00S
BOGALUSA*      RAIN      77  72  83 N5        30.03R
GALLIANO*      NOT AVBL
NEW ROADS*     RAIN      75  72  92 S7        30.01R
GONZALES*      DRIZZLE   72  72 100 SW3       29.99F
HAMMOND*       CLOUDY    77  72  83 CALM      30.03R
HOUMA*         PTSUNNY   79  72  78 SW5       29.99F
PORT FOURCHON* NOT AVBL

$$

LAZ041-044-053-054-170000-
SOUTHWEST LOUISIANA

CITY           SKY/WX    TMP DP  RH WIND       PRES   REMARKS
LAKE CHARLES   CLOUDY    78  74  87 CALM      30.00R
LAFAYETTE      CLOUDY    81  75  82 SW6       30.01R
PATTERSON      CLOUDY    72  70  94 S5        30.06R
SALT POINT       N/A     84  76  76 W3        30.01R
NEW IBERIA     CLOUDY    82  76  81 S5        30.03R
CHENAULT AIRPK PTSUNNY   79  72  78 CALM      30.01

$$

LAZ027-028-170000-
CENTRAL LOUISIANA

CITY           SKY/WX    TMP DP  RH WIND       PRES   REMARKS
FORT POLK      TSTM      79  73  83 VRB6G22   29.98S
ALEXANDRIA INT PTSUNNY   87  73  62 NE6       29.95S
ALEXANDRIA     MOSUNNY   90  73  57 N3        29.98R HX  98

$$

LAZ001-002-170000-
NORTHWEST LOUISIANA

CITY           SKY/WX    TMP DP  RH WIND       PRES   REMARKS
SHREVEPORT     PTSUNNY   88  68  51 NE10      29.97S
BARKSDALE AFB  MOSUNNY   88  70  54 NE8       29.97F
DTN SHREVEPORT MOSUNNY   87  70  56 E6        29.97F

$$

LAZ014-016-170000-
NORTHEAST LOUISIANA

CITY           SKY/WX    TMP DP  RH WIND       PRES   REMARKS
MONROE         MOSUNNY   87  69  54 NE6       29.99S
TALLULAH       MOSUNNY   86  68  54 NE7       29.99R

$$




USA.gov is the U.S. government's official web portal to all federal, state and local government web resources and services.